Location: Brede
(50.9167°N, 0.6000°E)
Time: 21:13:38
(UTC+00:00)

X-37B - Pass Details

Date: 03 November 2020
Orbit: 384 x 390 km, 45.0° (Epoch: 26 November)

Event Time Altitude Azimuth Distance (km) Brightness Sun altitude
Exits shadow 05:36:52 - 215° (SW) 2,035 4.0 -12.4°
Reaches altitude 10° 05:38:53 10° 194° (SSW) 1,411 3.4 -12.1°
Maximum altitude 05:40:48 15° 157° (SSE) 1,154 3.4 -11.8°
Drops below altitude 10° 05:42:42 10° 120° (ESE) 1,413 4.7 -11.5°
Sets 05:45:23 0° 96° (E) 2,268 6.7 -11.1°
